Tracking 25949 objects as of 9-Aug-2022
HD Live streaming from Space Station
objects crossing your sky now

STARLINK-4252

Track STARLINK-4252 now!
10-day predictions
STARLINK-4252 is classified as:


NORAD ID: 53057
Int'l Code: 2022-077Q
Perigee: 433.4 km
Apogee: 435.9 km
Inclination: 97.7 °
Period: 93.1 minutes
Semi major axis: 6805 km
RCS: Unknown
Launch date: July 11, 2022
Source: United States (US)
Launch site: AIR FORCE WESTERN TEST RANGE (AFWTR)
aabbcc
Your satellite tracking list
Your tracking list is empty




NASA's NSSDC Master Catalog

Two Line Element Set (TLE):
1 53057U 22077Q   22220.91667824 -.01215020  00000-0 -27118-1 0  9992
2 53057  97.6554  40.8025 0001778  78.6596  32.2847 15.46315382  1309
Source of the keplerian elements: AFSPC